Temperature
3 3 3 3 3 3 3 5 5 6 6 7 7 6 6 5 5 4 4 4 4 4 4 4 4 4 4 4 4 4 4 4 4 4 4 4 4 4 4 4 4 4 4 3
2 2 2 2 3 3 3 4 4 5 5 7 6 5 5 4 4 4 4 4 3 4 4 4 4 3 3 3 3 4 4 4 4 4 4 4 4 4 4 3 3 3 3 3
3 2 2 3 3 3 3 4 4 4 6 6 5 5 5 4 4 3 3 3 3 3 3 3 3 3 3 3 3 3 3 3 3 3 3 3 3 3 3 3 3 3 3 3
2 2 2 6 4 4 3 4 4 4 4 4 4 4 3 3 3 3 3 3 3 3 3 3 3 3 3 3 3 3 3 3 3 3 3 3 3 3 2 2 2 2 2 2
2 2 4 5 3 3 2 3 3 3 3 3 3 3 4 3 3 3 3 3 3 3 3 3 2 2 2 2 2 2 2 2 2 2 2 2 2 2 2 2 2 2 2 2
1 2 3 5 3 2 3 3 3 2 2 2 2 4 5 3 2 2 2 2 2 2 2 2 2 2 2 2 2 2 2 2 2 2 1 1 1 1 1 1 1 1 1 1
1 2 4 4 2 2 3 4 3 2 2 2 2 3 2 2 2 2 2 2 2 2 2 2 2 2 1 1 1 1 1 1 1 1 1 1 1 1 1 1 1 1 1 0
1 1 3 2 1 2 3 2 2 2 1 1 1 1 1 1 1 1 1 2 2 2 2 2 2 1 1 1 1 1 1 1 1 1 1 1 1 0 0 0 0 -0 -0 -0
2 3 3 1 1 1 1 1 1 1 1 1 0 0 1 1 1 1 1 1 1 1 1 1 1 1 1 1 1 0 0 0 0 0 0 0 0 -0 -0 -0 -1 -1 -1 -1
0 2 2 1 1 1 1 0 1 0 0 0 0 0 0 0 0 0 0 0 1 1 1 1 1 0 0 0 0 0 0 0 -0 -0 -0 -0 -1 -1 -1 -1 -1 -1 -1 -1
-0 1 0 0 0 0 0 0 0 0 -0 -0 -0 -0 -0 -0 -0 -0 -0 -0 0 0 0 0 -0 -0 -0 -0 -0 -0 -0 -0 -0 -0 -1 -1 -1 -1 -1 -1 -1 -1 -2 -2
1 1 1 1 1 0 0 -0 -0 -0 -1 -1 -1 -1 -1 -1 -1 -1 -1 -0 -0 -0 -0 -0 -0 -1 -1 -1 -0 -0 -0 -1 -1 -1 -1 -1 -1 -1 -2 -2 -2 -2 -2 -2
0 0 -0 -0 -0 -0 -0 -0 -1 -1 -1 -1 -1 -1 -1 -1 -1 -1 -1 -1 -1 -1 -1 -1 -1 -1 -1 -1 -1 -1 -1 -1 -1 -1 -1 -2 -2 -2 -2 -2 -2 -2 -2 -2
-1 -1 -1 -1 -1 -1 -1 -1 -1 -1 -1 -1 -1 -1 -2 -1 -1 -1 -1 -1 -1 -1 -1 -1 -1 -1 -1 -1 -1 -1 -1 -2 -2 -2 -2 -2 -2 -2 -2 -2 -2 -2 -2 -3
-1 -1 -1 -1 -1 -1 -1 -1 -1 -2 -2 -2 -2 -2 -2 -2 -2 -2 -2 -2 -2 -2 -2 -2 -1 -2 -2 -2 -2 -2 -2 -2 -2 -2 -2 -3 -3 -3 -3 -3 -3 -3 -3 -3
-2 -2 -2 -2 -2 -2 -2 -2 -2 -2 -2 -2 -2 -2 -2 -2 -2 -2 -2 -2 -2 -2 -2 -2 -2 -2 -2 -2 -2 -2 -3 -3 -3 -3 -3 -3 -3 -3 -3 -3 -3 -4 -4 -3
-3 -3 -3 -3 -2 -2 -2 -2 -2 -2 -2 -2 -3 -3 -3 -3 -3 -3 -3 -2 -2 -2 -2 -2 -2 -3 -3 -3 -3 -3 -3 -3 -3 -3 -3 -3 -4 -4 -4 -4 -4 -4 -4 -4
-2 -2 -2 -2 -2 -3 -3 -3 -3 -3 -3 -3 -3 -3 -3 -3 -3 -3 -3 -3 -3 -3 -3 -3 -3 -3 -3 -3 -3 -3 -4 -4 -4 -4 -4 -4 -4 -4 -4 -4 -4 -4 -4 -4
-2 -2 -2 -3 -3 -3 -3 -3 -3 -3 -3 -3 -4 -4 -4 -4 -4 -4 -4 -3 -3 -3 -3 -3 -3 -3 -4 -4 -4 -4 -4 -4 -4 -4 -4 -4 -5 -5 -5 -5 -5 -5 -5 -5
-3 -3 -3 -3 -3 -3 -3 -3 -3 -4 -4 -4 -4 -4 -4 -4 -4 -4 -4 -4 -4 -3 -3 -3 -4 -4 -4 -4 -4 -4 -4 -5 -5 -5 -5 -5 -5 -5 -5 -5 -5 -5 -5 -5
-3 -3 -3 -3 -3 -3 -4 -4 -4 -4 -4 -4 -5 -5 -5 -5 -5 -4 -4 -4 -4 -4 -4 -4 -4 -4 -4 -5 -5 -5 -5 -5 -5 -5 -5 -5 -5 -5 -5 -6 -6 -6 -6 -6
-3 -3 -4 -4 -4 -4 -4 -4 -4 -5 -5 -5 -5 -5 -5 -5 -5 -5 -5 -5 -4 -4 -4 -4 -5 -5 -5 -5 -5 -5 -5 -5 -5 -6 -6 -6 -6 -6 -6 -6 -6 -6 -6 -6
-4 -4 -4 -4 -4 -4 -4 -4 -5 -5 -5 -5 -5 -5 -5 -6 -6 -6 -5 -5 -5 -5 -5 -5 -5 -5 -6 -6 -6 -6 -6 -6 -6 -6 -6 -6 -6 -6 -6 -6 -6 -6 -6 -6
-4 -4 -4 -4 -4 -4 -4 -5 -5 -5 -5 -5 -6 -6 -6 -6 -6 -6 -6 -5 -5 -5 -5 -5 -6 -6 -6 -6 -6 -6 -6 -6 -7 -7 -7 -7 -7 -7 -7 -7 -7 -7 -7 -7
-5 -5 -5 -5 -5 -5 -5 -5 -6 -6 -6 -6 -6 -6 -6 -6 -6 -6 -6 -6 -6 -6 -6 -6 -6 -6 -6 -6 -6 -6 -7 -7 -7 -7 -7 -7 -7 -7 -7 -7 -7 -7 -7 -7
-5 -5 -5 -5 -6 -6 -6 -6 -6 -6 -6 -6 -6 -6 -6 -6 -6 -6 -6 -6 -6 -6 -6 -6 -6 -6 -7 -7 -7 -7 -7 -7 -7 -7 -7 -7 -7 -7 -7 -7 -7 -7 -7 -7
-6 -6 -6 -6 -6 -6 -6 -6 -6 -6 -7 -7 -7 -7 -7 -7 -6 -6 -6 -6 -7 -7 -7 -7 -7 -7 -7 -7 -7 -7 -7 -7 -7 -7 -7 -7 -7 -7 -7 -7 -7 -7 -7 -7
Wind_Speed
9 9 7 9 10 11 12 12 11 12 13 13 11 9 9 8 7 6 5 5 4 4 3 3 3 3 3 4 4 4 5 6 6 5 5 5 5 5 4 5 5 5 5 4
7 8 8 11 13 14 15 15 16 15 17 14 10 8 8 8 7 7 7 6 5 4 4 4 4 4 4 4 4 5 5 5 5 5 5 5 5 4 4 4 4 4 5 4
6 5 6 11 12 13 11 12 13 15 14 9 9 9 9 8 8 8 8 7 6 5 5 4 4 4 5 4 4 5 5 5 5 5 5 5 5 5 5 5 5 5 4 4
4 3 8 6 2 8 12 13 13 12 11 9 10 10 9 8 8 8 7 7 6 5 5 5 4 4 4 4 5 5 5 5 5 5 5 5 5 5 5 5 5 5 4 4
4 6 10 8 4 4 7 10 9 11 11 9 7 7 7 6 6 7 7 6 6 5 5 4 4 4 4 5 5 5 6 6 5 6 6 6 6 6 5 5 5 5 4 4
5 6 8 5 2 2 4 8 3 6 8 7 5 6 5 4 4 5 5 5 4 4 4 4 4 4 5 5 5 6 6 6 6 6 6 7 7 6 5 5 5 5 5 5
9 8 9 4 1 3 5 4 2 5 7 6 6 7 6 5 6 5 5 5 4 4 4 4 4 4 5 5 6 6 5 5 5 6 6 7 6 5 5 5 5 5 5 4
7 8 8 2 3 5 6 6 6 6 6 7 7 6 5 5 5 5 5 4 4 3 3 3 4 5 6 6 5 4 5 5 5 5 5 5 6 5 5 6 5 5 4 4
8 8 5 4 6 7 7 8 7 7 7 6 6 6 6 6 5 5 5 4 3 3 3 3 4 5 6 5 4 4 5 5 5 5 5 5 6 6 5 5 5 5 4 4
8 10 9 9 9 8 8 9 9 8 8 7 7 8 7 6 6 5 5 5 4 3 3 4 4 5 6 5 5 5 5 5 5 5 5 5 5 5 5 5 5 5 5 4
9 10 9 8 9 9 9 8 8 8 7 8 7 8 7 7 6 5 5 5 4 3 4 4 4 4 5 5 5 5 5 5 5 5 5 5 5 5 6 5 6 6 5 5
8 7 7 8 7 8 8 8 8 7 7 7 7 7 7 6 6 5 5 5 4 4 4 4 4 4 4 4 5 6 5 5 4 4 4 4 4 3 4 5 5 6 6 5
8 8 8 9 9 8 8 8 8 7 7 7 7 6 6 6 5 5 5 5 5 4 4 4 3 3 3 4 5 6 5 5 4 4 4 4 4 4 3 3 4 6 6 7
9 7 8 8 8 8 7 7 7 6 6 6 6 6 5 5 5 5 5 4 4 4 3 3 3 3 3 3 4 5 5 5 5 4 4 4 4 4 4 4 3 3 4 6
8 8 8 8 7 7 6 5 5 5 5 5 5 4 4 4 5 4 4 3 3 3 3 3 3 3 2 3 4 4 4 4 4 4 4 4 4 4 4 4 4 3 2 3
6 6 6 7 7 6 6 5 5 6 5 5 5 4 4 4 4 3 3 3 3 3 3 3 3 3 2 3 3 3 3 4 4 3 3 3 4 4 4 4 3 3 3 3
5 6 6 7 7 7 6 6 6 5 5 5 5 4 3 3 2 3 3 2 2 3 3 3 3 3 3 3 3 3 3 4 4 3 3 3 3 4 4 4 4 3 3 3
7 7 7 7 7 7 6 6 5 5 4 4 3 3 3 3 3 3 3 1 1 2 2 2 2 2 2 2 2 2 2 3 3 3 3 3 3 3 3 3 4 4 3 3
6 6 6 6 5 5 5 4 4 4 3 2 2 2 3 3 3 3 2 2 2 3 2 2 2 2 2 2 2 2 2 3 3 2 3 3 3 3 3 3 3 3 3 2
4 4 4 4 3 3 3 3 3 3 2 2 1 1 2 2 1 1 2 2 3 2 2 2 2 2 2 2 2 2 2 3 3 2 2 3 3 3 3 3 3 3 3 3
3 3 2 2 2 2 2 2 2 2 2 1 1 2 2 2 2 1 2 2 2 1 1 2 1 1 1 2 2 2 2 2 3 3 3 2 2 2 3 3 3 3 3 2
2 2 2 2 2 2 2 1 1 1 1 1 1 1 1 1 1 1 2 2 1 1 1 1 1 1 2 2 2 2 2 2 2 2 2 2 2 2 3 3 3 3 3 3
2 2 2 1 1 1 1 1 1 0 0 1 1 1 1 1 1 1 1 1 1 1 1 1 1 2 2 1 1 2 2 2 2 2 2 2 3 3 3 3 3 2 2 2
1 1 1 1 1 1 1 2 2 1 1 1 1 1 1 0 1 1 1 1 1 1 1 0 1 2 2 1 1 1 2 2 2 2 2 2 2 2 2 2 2 2 2 2
1 1 0 1 1 0 0 1 2 2 2 2 2 3 2 1 1 1 1 1 1 1 1 1 1 2 1 1 1 1 1 1 2 2 2 2 2 2 2 3 3 2 2 2
1 0 0 0 0 0 0 1 1 1 1 1 2 2 2 2 2 1 1 1 1 2 1 1 1 1 1 0 0 0 1 1 1 1 2 2 2 2 2 2 3 2 3 3
1 0 1 1 1 0 0 1 1 0 0 1 1 2 2 2 2 2 2 2 2 2 1 1 1 1 1 0 0 0 1 1 1 1 1 2 2 2 2 3 3 3 3 3
Wind_Direction
266 274 266 258 251 239 234 243 249 263 267 274 284 291 292 289 285 282 282 283 281 275 266 244 226 213 207 204 199 191 190 192 194 192 189 188 187 188 187 189 193 192 196 199
263 266 264 263 258 250 250 250 252 264 271 277 279 277 278 278 273 270 275 277 274 270 264 249 235 224 217 210 203 194 194 199 195 188 183 185 186 183 184 189 191 191 196 199
264 279 275 259 246 237 243 242 241 250 263 278 278 274 276 274 268 268 269 268 267 261 254 247 240 228 222 215 202 199 198 198 194 188 186 187 184 182 188 192 190 192 197 201
264 256 249 264 246 235 245 251 242 255 271 275 279 283 279 270 269 270 267 266 267 261 252 247 239 229 222 212 204 205 203 200 197 192 192 190 188 191 196 195 195 198 199 205
232 254 271 275 252 234 242 264 244 253 267 279 292 287 271 266 262 264 268 265 264 260 249 242 235 222 212 208 206 207 207 204 201 198 197 196 198 201 200 198 199 200 201 206
227 248 258 276 299 252 240 265 257 251 264 277 291 278 287 320 306 294 287 277 270 263 246 233 230 216 212 214 214 216 215 211 207 204 202 203 204 204 203 202 203 197 202 207
233 249 265 272 261 192 229 274 316 258 258 253 254 272 301 311 308 306 304 294 276 255 242 231 223 212 216 219 226 226 219 213 208 208 208 206 204 203 199 201 201 201 205 212
218 235 253 200 179 222 275 310 293 282 267 255 266 284 293 299 304 310 310 303 283 257 242 233 221 213 220 227 228 223 215 211 207 206 207 205 201 199 197 195 197 203 207 215
220 238 286 228 248 274 291 288 288 287 282 267 267 274 286 292 296 303 306 308 296 260 250 241 226 220 226 233 226 218 212 211 208 203 203 203 201 197 196 196 200 205 209 216
251 258 268 267 268 277 281 283 289 287 283 271 264 270 279 284 290 295 297 302 295 266 250 251 239 230 232 233 222 211 211 212 208 200 201 201 201 200 199 200 203 206 212 219
256 271 284 269 260 272 279 283 289 290 281 269 264 268 271 275 279 284 291 294 285 269 259 257 249 243 235 226 212 208 209 208 205 203 200 200 203 207 209 213 213 213 217 220
256 268 267 281 285 279 279 282 284 287 287 280 268 266 269 270 273 276 280 285 278 269 263 258 245 244 236 220 208 203 204 205 202 198 196 198 199 207 216 222 223 231 234 233
266 279 276 283 291 285 282 284 285 279 274 278 277 268 266 269 271 271 273 277 271 267 261 255 241 239 237 220 208 205 204 201 197 196 197 198 199 201 208 215 220 227 229 230
269 275 275 279 285 288 285 287 286 281 277 274 273 270 266 267 266 267 271 274 270 265 260 251 241 244 241 222 208 205 204 200 198 199 200 201 203 207 209 211 216 228 232 227
268 267 273 284 289 289 290 289 288 288 288 288 284 274 264 263 264 269 275 272 263 254 253 244 240 255 255 223 211 204 202 200 199 199 200 203 205 207 210 214 217 221 226 222
281 281 276 277 280 286 288 286 283 283 285 286 288 284 277 269 267 271 270 256 237 242 247 244 245 254 244 223 212 207 205 199 195 194 195 199 204 205 207 208 210 215 216 217
272 278 278 281 280 282 281 279 276 279 280 278 279 284 283 272 267 266 267 262 243 244 250 248 253 254 236 223 214 207 200 194 189 192 198 202 204 206 207 207 212 218 222 220
260 265 265 266 269 274 280 283 280 278 278 274 276 273 265 255 259 264 266 253 244 259 264 262 262 253 230 225 218 207 197 195 195 197 199 201 206 207 209 212 216 221 225 218
269 270 272 271 267 264 268 275 279 282 286 276 260 264 269 261 256 259 257 236 235 258 278 267 256 242 233 222 215 203 193 189 189 192 193 193 198 206 209 215 220 220 216 211
283 282 279 280 276 266 264 271 278 282 285 275 258 263 276 279 266 250 237 245 250 265 271 257 242 239 231 207 190 183 180 182 187 190 189 191 196 205 212 215 217 215 212 214
292 290 289 292 298 293 276 272 271 277 293 271 234 240 265 287 279 252 236 258 276 275 261 241 236 230 215 190 174 175 179 184 187 189 189 190 194 204 210 210 211 212 212 214
294 291 292 298 309 317 329 325 296 283 301 299 285 265 270 289 286 284 275 267 278 274 282 247 231 212 192 169 170 176 182 187 192 192 192 192 196 205 211 210 212 213 211 210
300 293 295 303 307 335 4 18 29 52 321 297 283 272 276 283 276 264 289 309 310 290 309 246 208 185 161 149 162 173 181 187 193 196 198 199 203 209 212 212 213 211 209 208
311 315 330 15 70 72 28 13 30 33 26 3 344 327 323 335 342 338 331 311 334 336 1 128 136 139 123 129 160 173 183 192 197 198 200 201 204 209 211 210 211 211 210 214
319 344 68 99 96 72 46 53 54 49 43 33 23 15 6 352 332 349 3 12 28 36 36 83 108 106 95 130 153 173 189 203 205 205 203 205 207 211 214 212 212 213 213 217
318 314 321 331 329 134 123 116 90 56 49 37 22 16 17 21 37 40 40 38 46 44 37 42 80 72 70 102 144 189 206 210 207 204 206 212 213 214 213 212 215 218 220 221
42 58 64 50 45 54 114 127 120 101 93 93 43 19 21 28 37 36 35 36 37 38 35 31 37 42 42 51 44 265 241 228 219 216 213 213 212 214 213 217 221 222 223 223
Height
1464 1463 1462 1461 1461 1460 1460 1454 1450 1441 1440 1436 1437 1439 1439 1438 1437 1436 1436 1435 1435 1434 1434 1434 1435 1435 1436 1437 1439 1440 1442 1443 1445 1447 1449 1451 1452 1453 1455 1456 1458 1459 1460 1461
1464 1462 1461 1460 1456 1455 1453 1450 1447 1444 1439 1435 1436 1437 1437 1436 1435 1434 1433 1433 1433 1432 1432 1432 1432 1433 1433 1434 1435 1437 1438 1440 1442 1444 1445 1447 1449 1450 1451 1453 1454 1455 1456 1457
1456 1460 1460 1450 1445 1447 1445 1442 1442 1439 1433 1433 1434 1433 1433 1432 1432 1431 1431 1430 1430 1430 1430 1430 1430 1430 1431 1431 1432 1434 1435 1437 1438 1440 1441 1443 1445 1446 1447 1449 1450 1451 1452 1453
1458 1460 1453 1434 1438 1438 1438 1436 1436 1434 1432 1432 1432 1431 1430 1430 1429 1428 1428 1427 1427 1427 1427 1427 1428 1428 1428 1429 1429 1430 1432 1433 1435 1436 1438 1440 1441 1443 1444 1445 1446 1447 1448 1450
1458 1450 1438 1434 1436 1437 1437 1432 1431 1431 1430 1431 1430 1428 1426 1426 1425 1425 1424 1424 1424 1424 1424 1424 1425 1425 1425 1425 1426 1427 1428 1430 1431 1433 1434 1436 1437 1439 1440 1441 1442 1443 1445 1445
1455 1448 1439 1429 1434 1435 1436 1429 1427 1428 1428 1429 1429 1426 1423 1423 1422 1422 1421 1421 1421 1421 1421 1421 1421 1422 1422 1422 1423 1424 1425 1426 1428 1429 1431 1432 1433 1435 1436 1437 1438 1440 1441 1442
1450 1445 1432 1431 1433 1434 1432 1424 1425 1425 1425 1426 1426 1425 1423 1421 1420 1419 1419 1418 1418 1418 1417 1418 1418 1419 1419 1419 1420 1421 1422 1423 1424 1426 1427 1428 1430 1431 1432 1433 1435 1436 1437 1438
1446 1443 1433 1430 1432 1430 1425 1424 1423 1422 1422 1422 1422 1421 1420 1419 1418 1417 1416 1415 1415 1414 1414 1415 1415 1415 1415 1416 1416 1418 1418 1419 1420 1422 1423 1424 1425 1426 1428 1429 1430 1431 1432 1433
1435 1430 1427 1427 1426 1425 1425 1423 1422 1421 1420 1419 1418 1418 1417 1416 1415 1414 1414 1413 1412 1412 1411 1411 1412 1412 1412 1412 1413 1414 1415 1415 1417 1418 1419 1420 1421 1422 1423 1425 1426 1427 1428 1429
1432 1426 1425 1424 1423 1422 1421 1420 1418 1417 1416 1416 1415 1414 1413 1413 1412 1411 1411 1410 1409 1409 1408 1408 1408 1408 1409 1409 1409 1410 1411 1412 1413 1414 1415 1416 1417 1418 1419 1420 1422 1423 1424 1425
1427 1423 1422 1419 1419 1418 1417 1416 1415 1414 1413 1412 1411 1410 1410 1409 1409 1408 1407 1407 1406 1405 1405 1404 1404 1404 1405 1405 1405 1406 1407 1408 1409 1410 1411 1412 1413 1415 1416 1417 1418 1419 1420 1421
1420 1419 1418 1416 1415 1414 1413 1412 1411 1410 1408 1408 1408 1407 1406 1406 1405 1405 1404 1403 1403 1402 1402 1401 1401 1401 1401 1401 1402 1402 1403 1404 1405 1406 1408 1409 1410 1411 1412 1414 1415 1416 1417 1418
1417 1416 1415 1413 1411 1410 1409 1408 1407 1406 1405 1404 1403 1403 1402 1402 1401 1401 1401 1400 1400 1399 1399 1398 1398 1398 1398 1398 1399 1399 1400 1401 1402 1403 1404 1405 1406 1407 1408 1410 1411 1412 1413 1414
1413 1413 1411 1409 1408 1406 1405 1404 1403 1402 1401 1400 1399 1399 1398 1398 1398 1397 1397 1397 1396 1396 1396 1396 1395 1395 1395 1395 1396 1396 1397 1398 1399 1400 1401 1402 1403 1404 1405 1406 1407 1407 1409 1410
1409 1409 1408 1405 1404 1402 1401 1400 1399 1398 1397 1396 1395 1395 1394 1394 1394 1394 1394 1394 1393 1393 1393 1393 1393 1393 1393 1393 1393 1394 1394 1395 1396 1397 1398 1399 1400 1401 1402 1403 1403 1404 1405 1406
1405 1404 1403 1402 1400 1399 1398 1397 1395 1394 1393 1392 1392 1391 1391 1391 1390 1390 1391 1391 1391 1390 1390 1390 1390 1390 1390 1390 1390 1391 1391 1392 1393 1394 1395 1396 1397 1397 1398 1399 1400 1401 1401 1402
1401 1400 1398 1397 1396 1395 1394 1393 1392 1391 1390 1389 1388 1388 1388 1387 1387 1387 1387 1388 1388 1388 1388 1387 1387 1387 1387 1387 1387 1388 1388 1389 1390 1391 1392 1393 1393 1394 1395 1396 1397 1398 1398 1399
1398 1397 1396 1394 1393 1392 1390 1390 1389 1388 1387 1386 1386 1385 1385 1385 1384 1384 1384 1385 1385 1385 1385 1385 1385 1384 1384 1384 1385 1385 1385 1386 1387 1387 1389 1390 1390 1391 1392 1393 1394 1394 1395 1396
1393 1392 1391 1390 1389 1388 1387 1386 1386 1385 1384 1384 1383 1383 1382 1382 1382 1382 1382 1382 1382 1382 1382 1382 1382 1382 1381 1382 1382 1382 1382 1383 1384 1385 1386 1387 1388 1389 1389 1390 1391 1391 1392 1392
1389 1388 1387 1386 1386 1385 1384 1383 1383 1382 1382 1381 1381 1380 1380 1380 1380 1380 1379 1379 1379 1379 1379 1379 1378 1378 1379 1379 1379 1380 1380 1381 1381 1382 1383 1384 1385 1386 1386 1387 1388 1388 1389 1389
1386 1385 1384 1384 1383 1382 1381 1381 1380 1380 1379 1379 1379 1378 1378 1377 1378 1377 1377 1377 1377 1377 1376 1376 1376 1376 1376 1376 1377 1377 1378 1379 1379 1380 1380 1381 1382 1383 1384 1384 1385 1385 1386 1387
1384 1383 1382 1381 1380 1380 1379 1379 1378 1378 1377 1377 1377 1376 1376 1375 1375 1375 1375 1375 1374 1374 1373 1373 1373 1373 1374 1374 1375 1375 1376 1376 1377 1377 1378 1379 1380 1380 1381 1382 1382 1383 1383 1384
1382 1381 1380 1379 1379 1378 1378 1377 1377 1376 1376 1375 1375 1374 1374 1373 1373 1373 1372 1373 1372 1372 1371 1371 1371 1372 1372 1372 1373 1373 1373 1374 1375 1375 1376 1377 1377 1378 1379 1379 1380 1380 1381 1382
1380 1379 1379 1378 1377 1377 1376 1376 1375 1375 1375 1374 1374 1373 1372 1372 1371 1371 1371 1371 1371 1371 1370 1370 1370 1370 1370 1370 1371 1371 1371 1372 1373 1373 1374 1375 1375 1376 1377 1377 1378 1378 1379 1380
1379 1378 1377 1377 1376 1375 1375 1375 1374 1374 1374 1373 1372 1372 1371 1371 1371 1370 1370 1370 1370 1369 1369 1369 1369 1369 1369 1369 1369 1370 1370 1371 1371 1372 1372 1373 1373 1374 1374 1375 1375 1376 1377 1377
1377 1376 1376 1376 1375 1375 1374 1374 1373 1373 1373 1372 1371 1371 1371 1370 1370 1370 1370 1369 1369 1369 1369 1368 1368 1368 1368 1368 1368 1369 1369 1369 1370 1370 1371 1371 1371 1372 1372 1373 1373 1374 1374 1375
1376 1375 1375 1374 1374 1374 1374 1374 1373 1373 1372 1372 1371 1371 1371 1370 1370 1370 1370 1369 1369 1369 1368 1368 1368 1368 1368 1368 1368 1368 1368 1368 1368 1368 1369 1369 1369 1370 1370 1371 1371 1372 1372 1373